Location: Mexico
(19.4000°N, 99.1500°W)
Time: 14:07:23
(UTC-06:00)

ISS - Pass Details

Date: 26 March 2017
Orbit: 399 x 409 km, 51.6° (Epoch: 24 March)

Event Time Altitude Azimuth Distance (km) Brightness Sun altitude
Exits shadow 05:52:01 16° 280° (W) 1,143 -2.2 -11.0°
Maximum altitude 05:53:47 25° 235° (SW) 856 -2.7 -10.6°
Drops below altitude 10° 05:56:33 10° 177° (S) 1,459 -1.0 -9.9°
Sets 05:58:50 0° 163° (SSE) 2,316 0.2 -9.4°
